[[{"header":{"parameterUnit":"m.s-1","parameterCategory":1,"la1":30.2991,"la2":30.254,"lo1":-89.0895,"lo2":-89.0444,"dy":0.0017,"dx":0.0017,"nx":28,"ny":28,"refTime":"2025-04-29T21:00:00:Z","depth":0,"parameterNumber":2,"parameterNumberName":"U-component_of_WINDS"},"data":[0,0,0,0,0,0,0,0,0,0,0,0,0,0,0,0,0,0,0,0,0,0,0,0,0,0,0,0,0,0,0,0,0,0,0,0,0,0,0,0,0,0,0,0,0,0,0,0,0,0,0,0,0,0,0,0,0,0,-2.714,-2.714,0,-2.7136,-2.7136,-2.7135,-2.709,-2.7089,-2.7088,-2.7087,-2.7083,-2.7084,-2.7085,0,0,0,0,0,0,0,0,0,0,0,0,0,-2.7109,-2.711,-2.714,-2.714,-2.714,-2.7136,-2.7136,-2.7135,-2.709,-2.7089,-2.7087,-2.7086,-2.7082,-2.7084,-2.7085,0,0,0,0,0,0,0,0,0,0,0,0,0,-2.7116,-2.7111,-2.714,-2.7116,-2.7114,-2.7136,-2.7136,-2.7135,-2.709,-2.7089,-2.7087,-2.7085,-2.7082,-2.7083,-2.7085,-2.7128,0,0,-2.7089,-2.709,0,0,0,0,0,0,0,0,-2.7115,-2.7117,-2.712,-2.7118,-2.7116,-2.7111,-2.7123,-2.7133,-2.7091,-2.71,-2.7086,-2.7085,-2.7094,-2.7094,-2.7097,-2.7128,-2.7128,-2.7089,-2.709,-2.7091,-2.7091,0,0,0,0,0,0,0,-2.7115,-2.7117,-2.7138,-2.712,-2.7118,-2.7107,-2.7106,-2.7125,-2.7106,-2.7099,-2.7095,-2.7095,-2.7092,-2.7096,-2.7097,-2.7128,-2.7089,-2.7091,-2.7092,-2.7092,-2.7194,-2.7196,0,0,0,0,0,0,-2.7118,-2.7117,-2.7138,-2.7138,-2.7111,-2.7109,-2.7107,-2.7115,-2.7106,-2.7103,-2.7097,-2.7093,-2.7094,-2.7095,-2.7096,-2.7146,-2.7091,-2.7092,-2.7093,-2.7193,-2.7195,-2.7197,0,0,0,0,0,0,-2.7117,-2.712,-2.7138,-2.7126,-2.7128,-2.7111,-2.7119,-2.7115,-2.7119,-2.7105,-2.7101,-2.7104,-2.7093,-2.7094,-2.7121,-2.7145,-2.7093,-2.7094,-2.719,-2.7193,-2.7196,-2.7246,0,0,0,0,0,0,-2.7117,-2.712,-2.7136,-2.7127,-2.7129,-2.7162,-2.7121,-2.7117,-2.7121,-2.7117,-2.711,-2.7108,-2.7092,-2.7119,-2.7122,-2.7146,-2.7095,-2.7188,-2.7192,-2.7195,-2.7242,-2.725,-2.7257,0,0,0,0,0,-2.7116,-2.715,-2.7137,-2.714,-2.7148,-2.7164,-2.7165,-2.7146,-2.7124,-2.714,-2.7131,-2.7108,-2.7143,-2.7122,-2.7125,-2.715,-2.7186,-2.7191,-2.7195,-2.7239,-2.7249,-2.7257,0,0,0,0,0,0,-2.7162,-2.7149,-2.7134,-2.7167,-2.7167,-2.7156,-2.7175,-2.7157,-2.7163,-2.7158,-2.7135,-2.7134,-2.7164,-2.716,-2.7137,-2.7192,-2.716,-2.7166,-2.7193,-2.7202,-2.721,-2.7209,-2.7097,0,0,0,0,0,-2.7177,-2.719,-2.7178,-2.7208,-2.7209,-2.7193,-2.7199,-2.7184,-2.7183,-2.7183,-2.7176,-2.7176,-2.7187,-2.7195,-2.7204,-2.7242,-2.724,-2.7261,-2.7269,-2.7275,-2.7279,-2.7299,-2.7308,-2.721,-2.721,-2.721,0,0,-2.7206,-2.72,-2.721,-2.7217,-2.7216,-2.723,-2.7193,-2.721,-2.7221,-2.7186,-2.7209,-2.7205,-2.7204,-2.7236,-2.725,-2.7234,-2.7306,-2.728,-2.7285,-2.7286,-2.7304,-2.7313,-2.7322,-2.7213,-2.7213,-2.7212,0,0,-2.7266,-2.7264,-2.7288,-2.7288,-2.7286,-2.7275,-2.7281,-2.7274,-2.7269,-2.7293,-2.7267,-2.728,-2.73,-2.73,-2.7303,-2.7365,-2.7344,-2.7369,-2.7408,-2.7427,-2.7435,-2.7442,-2.7463,-2.7471,-2.7374,-2.7374,-2.7374,0,-2.7303,-2.7324,-2.7304,-2.7323,-2.7326,-2.7296,-2.7321,-2.7322,-2.7323,-2.7327,-2.7309,-2.7333,-2.733,-2.7362,-2.7378,-2.7381,-2.7387,-2.7369,-2.7436,-2.7442,-2.7448,-2.7468,-2.7477,-2.7377,-2.7376,-2.7376,-2.7376,0,-2.7368,-2.7383,-2.7404,-2.7406,-2.7412,-2.7435,-2.7418,-2.7427,-2.7413,-2.7404,-2.7429,-2.7425,-2.7433,-2.744,-2.7426,-2.747,-2.746,-2.744,-2.7407,-2.7461,-2.7479,-2.7487,-2.7381,-2.738,-2.7379,-2.7378,0,0,-2.7456,-2.7448,-2.7455,-2.7456,-2.7453,-2.7464,-2.7486,-2.7493,-2.7501,-2.7504,-2.7521,-2.7539,-2.752,-2.7523,-2.751,-2.7527,-2.7576,-2.7504,-2.7503,-2.7516,-2.7624,-2.7639,-2.7648,-2.7563,-2.7565,-2.7566,-2.7624,0,-2.7513,-2.7548,-2.7531,-2.7568,-2.7582,-2.7555,-2.7573,-2.7573,-2.7566,-2.7577,-2.757,-2.7582,-2.7557,-2.7558,-2.7575,-2.7567,-2.7597,-2.7563,-2.7578,-2.7579,-2.7577,-2.7658,-2.7673,-2.7728,-2.7631,-2.7632,-2.7633,0,-2.7584,-2.759,-2.7628,-2.7623,-2.7628,-2.7645,-2.7651,-2.7662,-2.7662,-2.7656,-2.766,-2.7643,-2.7664,-2.7633,-2.7661,-2.7638,-2.7644,-2.7641,-2.7643,-2.7642,-2.7608,-2.7658,-2.7745,-2.7753,-2.7645,-2.7644,-2.7643,0,-2.7643,-2.7661,-2.7686,-2.7688,-2.7682,-2.7695,-2.7693,-2.7692,-2.7698,-2.7703,-2.7707,-2.7716,-2.772,-2.7727,-2.7712,-2.7692,-2.7743,-2.7711,-2.7738,-2.7738,-2.7748,-2.7747,-2.7836,-2.7754,-2.7754,-2.7754,-2.7754,0,-2.7708,-2.7732,-2.7712,-2.7728,-2.7754,-2.7736,-2.7763,-2.7758,-2.7757,-2.7772,-2.7749,-2.7763,-2.7743,-2.7756,-2.7745,-2.7769,-2.7772,-2.7767,-2.7764,-2.7768,-2.7769,-2.777,-2.7766,-2.7756,-2.7756,-2.7755,-2.7755,0,-2.7777,-2.7765,-2.7791,-2.7784,-2.7783,-2.7803,-2.7797,-2.7811,-2.7803,-2.7822,-2.7825,-2.7812,-2.7826,-2.7812,-2.7825,-2.7817,-2.785,-2.7842,-2.785,-2.7847,-2.7874,-2.7872,-2.7966,-2.7977,-2.789,-2.7891,-2.7891,0,-2.7819,-2.7837,-2.7832,-2.784,-2.784,-2.7853,-2.7859,-2.7843,-2.785,-2.7852,-2.7866,-2.7877,-2.7885,-2.7908,-2.79,-2.791,-2.7901,-2.7933,-2.7902,-2.7906,-2.79,-2.7898,-2.79,-2.7939,-2.794,-2.7941,-2.7942,0,-2.7894,-2.7887,-2.7896,-2.7905,-2.7913,-2.7918,-2.7922,-2.793,-2.7912,-2.7922,-2.7935,-2.7942,-2.7955,-2.7966,-2.7974,-2.7972,-2.7954,-2.7952,-2.7958,-2.7962,-2.7966,-2.7963,-2.7866,-2.7949,-2.7948,-2.7948,-2.7947,-2.7947,-2.7949,-2.7964,-2.7964,-2.7975,-2.7977,-2.7981,-2.7994,-2.7988,-2.7998,-2.8007,-2.7997,-2.8014,-2.8014,-2.8022,-2.8023,-2.8036,-2.8022,-2.8032,-2.8034,-2.8036,-2.804,-2.7965,-2.8037,-2.8037,-2.8037,-2.8037,-2.8036,0,-2.8022,-2.8021,-2.8032,-2.8038,-2.8047,-2.803,-2.8034,-2.8043,-2.8057,-2.8059,-2.8068,-2.8083,-2.8095,-2.8089,-2.8098,-2.811,-2.8102,-2.8113,-2.8111,-2.8111,-2.8052,-2.8045,-2.8119,-2.8119,-2.8119,-2.8119,-2.8119,-2.8119,-2.8061,-2.8085,-2.8078,-2.8103,-2.8101,-2.8117,-2.8121,-2.8125,-2.8126,-2.8144,-2.8154,-2.815,-2.8149,-2.8158,-2.8168,-2.8166,-2.817,-2.8184,-2.8179,-2.8123,-2.8115,-2.8107,-2.81,-2.8186,-2.8186,-2.8237,-2.8238,-2.8238]},{"header":{"parameterUnit":"m.s-1","parameterCategory":1,"la1":30.2991,"la2":30.254,"lo1":-89.0895,"lo2":-89.0444,"dy":0.0017,"dx":0.0017,"nx":28,"ny":28,"refTime":"2025-04-29T21:00:00:Z","depth":0,"parameterNumber":3,"parameterNumberName":"V-component_of_WINDS"},"data":[0,0,0,0,0,0,0,0,0,0,0,0,0,0,0,0,0,0,0,0,0,0,0,0,0,0,0,0,0,0,0,0,0,0,0,0,0,0,0,0,0,0,0,0,0,0,0,0,0,0,0,0,0,0,0,0,0,0,3.3712,3.3712,0,3.372,3.372,3.372,3.3708,3.3707,3.3707,3.3707,3.3714,3.3714,3.3715,0,0,0,0,0,0,0,0,0,0,0,0,0,3.3685,3.3686,3.3712,3.3712,3.3712,3.372,3.372,3.372,3.3708,3.3707,3.3707,3.3706,3.3713,3.3714,3.3715,0,0,0,0,0,0,0,0,0,0,0,0,0,3.3695,3.3686,3.3712,3.3707,3.3707,3.372,3.372,3.372,3.3708,3.3707,3.3707,3.3706,3.3713,3.3714,3.3715,3.3733,0,0,3.3718,3.3718,0,0,0,0,0,0,0,0,3.3695,3.3696,3.3708,3.3707,3.3707,3.3712,3.3713,3.3724,3.3708,3.3707,3.3707,3.3706,3.3714,3.3714,3.3717,3.3733,3.3733,3.3718,3.3718,3.3718,3.3719,0,0,0,0,0,0,0,3.3694,3.3696,3.3715,3.3708,3.3707,3.3704,3.3705,3.3715,3.3714,3.3707,3.3707,3.3708,3.3713,3.3716,3.3717,3.3733,3.3718,3.3718,3.3719,3.3719,3.3764,3.3765,0,0,0,0,0,0,3.3694,3.3695,3.3715,3.3715,3.3699,3.3705,3.3706,3.3711,3.3714,3.3714,3.3708,3.3707,3.3715,3.3716,3.3717,3.3738,3.3718,3.3719,3.372,3.3764,3.3765,3.3765,0,0,0,0,0,0,3.3694,3.3696,3.3714,3.3705,3.3707,3.3706,3.3712,3.3712,3.3715,3.3714,3.3714,3.3712,3.3715,3.3716,3.3729,3.3738,3.372,3.372,3.3763,3.3764,3.3765,3.378,0,0,0,0,0,0,3.3693,3.3696,3.3703,3.3705,3.3708,3.3726,3.3713,3.3712,3.3716,3.3715,3.3718,3.3717,3.3714,3.3728,3.373,3.3739,3.3721,3.3762,3.3763,3.3765,3.3779,3.3782,3.3784,0,0,0,0,0,3.3692,3.3706,3.3703,3.3705,3.3716,3.3727,3.3728,3.3725,3.3717,3.3724,3.3724,3.3717,3.3737,3.3729,3.3732,3.3741,3.3761,3.3763,3.3764,3.3778,3.3781,3.3784,0,0,0,0,0,0,3.3704,3.3707,3.3703,3.3719,3.3723,3.3725,3.3733,3.3728,3.3734,3.3732,3.3728,3.3728,3.3742,3.3743,3.3734,3.3759,3.3748,3.375,3.3757,3.3761,3.3763,3.3762,3.3722,0,0,0,0,0,3.3709,3.3717,3.3719,3.3733,3.3735,3.3734,3.3738,3.3735,3.3739,3.374,3.3741,3.3745,3.3752,3.3756,3.3763,3.3779,3.378,3.3787,3.379,3.3792,3.3793,3.3802,3.3806,3.377,3.377,3.377,0,0,3.3718,3.3721,3.3726,3.3735,3.3738,3.3746,3.3735,3.3744,3.3751,3.3742,3.3754,3.3755,3.3758,3.3773,3.378,3.3774,3.3803,3.3794,3.3796,3.3796,3.3804,3.3808,3.381,3.3771,3.3771,3.3771,0,0,3.3739,3.3742,3.3754,3.3757,3.3762,3.3761,3.3764,3.3767,3.3767,3.378,3.3773,3.378,3.3793,3.3796,3.3799,3.3822,3.3816,3.3825,3.3838,3.3846,3.3849,3.3852,3.386,3.3863,3.3826,3.3826,3.3826,0,3.375,3.3763,3.3761,3.3771,3.3775,3.3768,3.378,3.3783,3.3789,3.3792,3.3786,3.3802,3.3804,3.3819,3.3825,3.3828,3.3831,3.3824,3.3849,3.3851,3.3854,3.3861,3.3864,3.3827,3.3827,3.3827,3.3827,0,3.3776,3.3786,3.3795,3.3801,3.3807,3.3818,3.3816,3.3822,3.3819,3.3819,3.3832,3.3834,3.3841,3.3845,3.3842,3.386,3.3856,3.385,3.3839,3.3858,3.3865,3.3868,3.3829,3.3828,3.3828,3.3828,0,0,3.3804,3.381,3.3814,3.3817,3.3822,3.3829,3.384,3.3847,3.3852,3.3857,3.3865,3.3876,3.3871,3.3874,3.3872,3.3879,3.3898,3.3872,3.3872,3.3876,3.3917,3.3921,3.3925,3.3894,3.3895,3.3895,3.3917,0,3.3825,3.3844,3.3843,3.386,3.3869,3.3863,3.3872,3.3876,3.3877,3.3884,3.3884,3.3892,3.3884,3.3886,3.3893,3.3894,3.3906,3.3892,3.3901,3.3902,3.39,3.3929,3.3933,3.3953,3.392,3.392,3.392,0,3.3852,3.3858,3.3877,3.3882,3.3885,3.3893,3.39,3.3907,3.3912,3.3911,3.3916,3.3912,3.3923,3.3913,3.3927,3.3918,3.3922,3.3923,3.3923,3.3923,3.3912,3.3929,3.396,3.3963,3.3925,3.3924,3.3924,0,3.387,3.3883,3.3897,3.39,3.3905,3.3911,3.3913,3.3917,3.3922,3.3928,3.3931,3.3938,3.3942,3.3947,3.3945,3.3938,3.396,3.3949,3.3959,3.396,3.3964,3.3963,3.3995,3.3967,3.3967,3.3967,3.3967,0,3.3893,3.3905,3.3905,3.3913,3.3926,3.3924,3.3936,3.3938,3.3942,3.395,3.3945,3.3953,3.395,3.3957,3.3956,3.3968,3.397,3.397,3.3969,3.397,3.397,3.3972,3.397,3.3968,3.3968,3.3968,3.3968,0,3.3915,3.3915,3.3929,3.3934,3.3935,3.3944,3.3948,3.3955,3.3956,3.3966,3.3968,3.3969,3.3977,3.3976,3.3986,3.3985,3.3999,3.3997,3.3998,3.3997,3.4007,3.4006,3.4041,3.4045,3.4015,3.4015,3.4016,0,3.3929,3.3938,3.3944,3.3949,3.3952,3.3961,3.3966,3.3965,3.397,3.3976,3.3983,3.3991,3.3997,3.4011,3.4012,3.4019,3.4017,3.4029,3.4018,3.4018,3.4016,3.4016,3.4016,3.403,3.4031,3.4031,3.4031,0,3.3955,3.3955,3.3962,3.397,3.3977,3.3983,3.3988,3.3993,3.3992,3.3998,3.4007,3.4012,3.4022,3.403,3.4037,3.4039,3.4035,3.4035,3.4037,3.4038,3.4037,3.4037,3.4003,3.4034,3.4033,3.4033,3.4033,3.4033,3.3973,3.398,3.3986,3.3995,3.3999,3.4004,3.4012,3.4014,3.4021,3.403,3.4028,3.4038,3.4043,3.4052,3.4055,3.4062,3.4058,3.4062,3.4063,3.4063,3.4064,3.4037,3.4063,3.4063,3.4063,3.4063,3.4063,0,3.3997,3.4001,3.4009,3.4017,3.4024,3.4021,3.4027,3.4033,3.4042,3.4047,3.4054,3.4064,3.4072,3.4074,3.4081,3.4087,3.4085,3.4089,3.4088,3.4089,3.4068,3.4065,3.409,3.409,3.409,3.409,3.409,3.409,3.4011,3.4024,3.4025,3.404,3.4043,3.4053,3.4057,3.4062,3.4066,3.4078,3.4085,3.4087,3.409,3.4098,3.4105,3.4106,3.4108,3.4113,3.4112,3.4093,3.409,3.4087,3.4084,3.4114,3.4114,3.4132,3.4132,3.4133]}]]